Regional Weather Roundup
Issued by NWS

Home | Current Version | Previous Version | Graphics & Text | Print | Product List | Glossary On
Versions: 1 2 3 4 5 6 7 8 9 10 11 12 13 14 15 16 17 18 19 20 21 22 23 24 25 26 27 28 29 30 31 32 33 34 35 36 37 38 39 40 41 42 43 44 45 46 47 48 49 50
000
ASUS43 KLMK 240310
RWRKY
KENTUCKY REGIONAL WEATHER ROUNDUP
NATIONAL WEATHER SERVICE LOUISVILLE KY
1000 PM EST MON JAN 23 2017

NOTE "FAIR" INDICATES FEW OR NO CLOUDS BELOW 12,000 FEET
WITH NO SIGNIFICANT WEATHER AND/OR OBSTRUCTIONS TO VISIBILITY.

KYZ001>023-026-027-061>063-070>075-240400-
WESTERN AND SOUTH CENTRAL KENTUCKY

CITY           SKY/WX    TMP DP  RH WIND       PRES   REMARKS
PADUCAH        CLOUDY    43  33  68 N13       29.85R
HENDERSON      CLOUDY    43  34  70 NW8       29.83S
OWENSBORO      CLOUDY    42  36  79 NW12G18   29.83R
HOPKINSVILLE   CLOUDY    42  35  78 NW9       29.84R
BOWLING GREEN  CLOUDY    43  35  73 NW8       29.81S
GLASGOW        CLOUDY    41  37  87 W8        29.78S
$$

KYZ024-025-028>034-038-045-046-053-240400-
NORTH CENTRAL KENTUCKY

CITY           SKY/WX    TMP DP  RH WIND       PRES   REMARKS
LOUISVILLE/SDF CLOUDY    43  37  79 NW14      29.76R
LOUISVILLE/LOU CLOUDY    43  38  82 NW13      29.76R
FORT KNOX      CLOUDY    41  38  90 W10       29.75S
$$

KYZ035>037-039>044-047>052-055>060-089>105-240400-
NORTHEAST KENTUCKY

CITY           SKY/WX    TMP DP  RH WIND       PRES   REMARKS
LEXINGTON      CLOUDY    44  41  89 W16G24    29.70R
COVINGTON      CLOUDY    44  42  93 NW15      29.68R
FRANKFORT      CLOUDY    44  40  85 NW8G22    29.70R FOG
$$

KYZ054-064>069-076>088-106>120-240400-
SOUTHEAST KENTUCKY

CITY           SKY/WX    TMP DP  RH WIND       PRES   REMARKS
JACKSON        LGT RAIN  45  43  93 NW12G18   29.61R FOG
LONDON         CLOUDY    44  40  85 NW13G21   29.68R
SOMERSET       LGT RAIN  41  41 100 W15       29.74R
MIDDLESBORO    CLOUDY    46  43  91 NW12      29.67R
MONTICELLO     LGT RAIN  42  41  96 W16       29.76R
$$




USA.gov is the U.S. government's official web portal to all federal, state and local government web resources and services.